Time,TemperatureF,DewpointF,PressureIn,WindDirection,WindDirectionDegrees,WindSpeedMPH,WindSpeedGustMPH,Humidity,HourlyPrecipIn,Conditions,Clouds,dailyrainin,SolarRadiationWatts/m^2,SoftwareType,DateUTC
2013-03-07 00:02:00,38.0,36.0,-100.00,SW,234,4.0,6.0,93,0.00,,,0.30,0.000000,,2013-03-07 08:02:00,
2013-03-07 00:11:00,38.0,36.0,-100.00,SW,234,4.0,6.0,93,0.00,,,0.30,0.000000,,2013-03-07 08:11:00,
2013-03-07 00:22:00,38.0,36.0,-100.00,SW,234,4.0,6.0,93,0.00,,,0.30,0.000000,,2013-03-07 08:22:00,
2013-03-07 00:54:00,39.0,36.0,-100.00,SW,236,5.0,8.0,89,0.00,,,0.30,0.000000,,2013-03-07 08:54:00,
2013-03-07 01:02:00,39.0,36.0,-100.00,SW,236,5.0,8.0,89,0.00,,,0.30,0.000000,,2013-03-07 09:02:00,
2013-03-07 01:12:00,39.0,36.0,-100.00,SW,236,5.0,8.0,89,0.00,,,0.30,0.000000,,2013-03-07 09:12:00,
2013-03-07 01:22:00,39.0,36.0,-100.00,SW,236,5.0,8.0,89,0.00,,,0.30,0.000000,,2013-03-07 09:22:00,
2013-03-07 01:53:00,39.0,35.0,-100.00,SW,214,4.0,6.0,86,0.00,,,-99.99,0.000000,,2013-03-07 09:53:00,
2013-03-07 02:02:00,39.0,35.0,-100.00,SW,214,4.0,6.0,86,0.00,,,-99.99,0.000000,,2013-03-07 10:02:00,
2013-03-07 02:12:00,39.0,35.0,-100.00,SW,214,4.0,6.0,86,0.00,,,-99.99,0.000000,,2013-03-07 10:12:00,
2013-03-07 02:22:00,39.0,35.0,-100.00,SW,214,4.0,6.0,86,0.00,,,-99.99,0.000000,,2013-03-07 10:22:00,
2013-03-07 02:53:00,40.0,35.0,-100.00,SSW,200,4.0,7.0,83,0.00,,,-99.99,0.000000,,2013-03-07 10:53:00,
2013-03-07 03:02:00,40.0,35.0,-100.00,SSW,200,4.0,7.0,83,0.00,,,-99.99,0.000000,,2013-03-07 11:02:00,
2013-03-07 03:11:00,40.0,35.0,-100.00,SSW,200,4.0,7.0,83,0.00,,,-99.99,0.000000,,2013-03-07 11:11:00,
2013-03-07 03:22:00,40.0,35.0,-100.00,SSW,200,4.0,7.0,83,0.00,,,-99.99,0.000000,,2013-03-07 11:22:00,
2013-03-07 03:54:00,40.0,35.0,-100.00,SW,215,3.0,6.0,81,0.00,,,0.30,0.000000,,2013-03-07 11:54:00,
2013-03-07 04:02:00,40.0,35.0,-100.00,SW,215,3.0,6.0,81,0.00,,,0.30,0.000000,,2013-03-07 12:02:00,
2013-03-07 04:11:00,40.0,35.0,-100.00,SW,215,3.0,6.0,81,0.00,,,0.30,0.000000,,2013-03-07 12:11:00,
2013-03-07 04:22:00,40.0,35.0,-100.00,SW,215,3.0,6.0,81,0.00,,,0.30,0.000000,,2013-03-07 12:22:00,
2013-03-07 04:52:00,41.0,35.0,-100.00,SSW,211,5.0,8.0,79,0.00,,,0.26,0.000000,,2013-03-07 12:52:00,
2013-03-07 05:02:00,41.0,35.0,-100.00,SSW,211,5.0,8.0,79,0.00,,,0.26,0.000000,,2013-03-07 13:02:00,
2013-03-07 05:12:00,41.0,35.0,-100.00,SSW,211,5.0,8.0,79,0.00,,,0.26,0.000000,,2013-03-07 13:12:00,
2013-03-07 05:22:00,41.0,35.0,-100.00,SSW,211,5.0,8.0,79,0.00,,,0.26,0.000000,,2013-03-07 13:22:00,
2013-03-07 05:53:00,39.0,33.0,-100.00,SSW,210,3.0,6.0,80,0.00,,,0.24,0.000000,,2013-03-07 13:53:00,
2013-03-07 06:01:00,39.0,33.0,-100.00,SSW,210,3.0,6.0,80,0.00,,,0.24,0.000000,,2013-03-07 14:01:00,
2013-03-07 06:11:00,39.0,33.0,-100.00,SSW,210,3.0,6.0,80,0.00,,,0.24,0.000000,,2013-03-07 14:11:00,
2013-03-07 06:22:00,39.0,33.0,-100.00,SSW,210,3.0,6.0,80,0.00,,,0.24,0.000000,,2013-03-07 14:22:00,
2013-03-07 06:53:00,38.0,34.0,-100.00,NNE,27,1.0,4.0,85,0.00,,,0.23,0.000000,,2013-03-07 14:53:00,
2013-03-07 07:02:00,38.0,34.0,-100.00,NNE,27,1.0,4.0,85,0.00,,,0.23,0.000000,,2013-03-07 15:02:00,
2013-03-07 07:12:00,38.0,34.0,-100.00,NNE,27,1.0,4.0,85,0.00,,,0.23,0.000000,,2013-03-07 15:12:00,
2013-03-07 07:22:00,38.0,34.0,-100.00,NNE,27,1.0,4.0,85,0.00,,,0.23,0.000000,,2013-03-07 15:22:00,
2013-03-07 07:53:00,39.0,35.0,-100.00,WNW,292,2.0,4.0,87,0.00,,,0.23,34.000000,,2013-03-07 15:53:00,
2013-03-07 08:01:00,39.0,35.0,-100.00,WNW,292,2.0,4.0,87,0.00,,,0.23,34.000000,,2013-03-07 16:01:00,
2013-03-07 08:12:00,39.0,35.0,-100.00,WNW,292,2.0,4.0,87,0.00,,,0.23,34.000000,,2013-03-07 16:12:00,
2013-03-07 08:22:00,39.0,35.0,-100.00,WNW,292,2.0,4.0,87,0.00,,,0.23,34.000000,,2013-03-07 16:22:00,
2013-03-07 08:53:00,44.0,35.0,-100.00,South,171,3.0,5.0,71,0.00,,,0.22,192.000000,,2013-03-07 16:53:00,
2013-03-07 09:02:00,44.0,35.0,-100.00,South,171,3.0,5.0,71,0.00,,,0.22,192.000000,,2013-03-07 17:02:00,
2013-03-07 09:11:00,44.0,35.0,-100.00,South,171,3.0,5.0,71,0.00,,,0.22,192.000000,,2013-03-07 17:11:00,
2013-03-07 09:22:00,44.0,35.0,-100.00,South,171,3.0,5.0,71,0.00,,,0.22,192.000000,,2013-03-07 17:22:00,
2013-03-07 09:54:00,46.0,35.0,-100.00,SSW,198,3.0,5.0,64,0.00,,,0.22,220.000000,,2013-03-07 17:54:00,
2013-03-07 10:03:00,46.0,35.0,-100.00,SSW,198,3.0,5.0,64,0.00,,,0.22,220.000000,,2013-03-07 18:03:00,
2013-03-07 10:11:00,46.0,35.0,-100.00,SSW,198,3.0,5.0,64,0.00,,,0.22,220.000000,,2013-03-07 18:11:00,
2013-03-07 10:21:00,46.0,35.0,-100.00,SSW,198,3.0,5.0,64,0.00,,,0.22,220.000000,,2013-03-07 18:21:00,
2013-03-07 10:52:00,50.0,34.0,-100.00,WSW,237,7.0,13.0,55,0.00,,,0.22,596.000000,,2013-03-07 18:52:00,
2013-03-07 11:02:00,50.0,34.0,-100.00,WSW,237,7.0,13.0,55,0.00,,,0.22,596.000000,,2013-03-07 19:02:00,
2013-03-07 11:11:00,50.0,34.0,-100.00,WSW,237,7.0,13.0,55,0.00,,,0.22,596.000000,,2013-03-07 19:11:00,
2013-03-07 11:22:00,50.0,34.0,-100.00,WSW,237,7.0,13.0,55,0.00,,,0.22,596.000000,,2013-03-07 19:22:00,
2013-03-07 11:53:00,53.0,34.0,-100.00,South,169,5.0,12.0,48,0.00,,,0.22,685.000000,,2013-03-07 19:53:00,
2013-03-07 12:01:00,53.0,34.0,-100.00,South,169,5.0,12.0,48,0.00,,,0.22,685.000000,,2013-03-07 20:01:00,
2013-03-07 12:12:00,53.0,34.0,-100.00,South,169,5.0,12.0,48,0.00,,,0.22,685.000000,,2013-03-07 20:12:00,
2013-03-07 12:21:00,53.0,34.0,-100.00,South,169,5.0,12.0,48,0.00,,,0.22,685.000000,,2013-03-07 20:21:00,
2013-03-07 12:54:00,53.0,34.0,-100.00,SSE,161,7.0,12.0,48,0.00,,,0.21,696.000000,,2013-03-07 20:54:00,
2013-03-07 13:02:00,53.0,34.0,-100.00,SSE,161,7.0,12.0,48,0.00,,,0.21,696.000000,,2013-03-07 21:02:00,
2013-03-07 13:11:00,53.0,34.0,-100.00,SSE,161,7.0,12.0,48,0.00,,,0.21,696.000000,,2013-03-07 21:11:00,
2013-03-07 13:22:00,53.0,34.0,-100.00,SSE,161,7.0,12.0,48,0.00,,,0.21,696.000000,,2013-03-07 21:22:00,
2013-03-07 13:52:00,54.0,33.0,-100.00,ESE,123,3.0,12.0,44,0.00,,,0.21,702.000000,,2013-03-07 21:52:00,
2013-03-07 14:01:00,54.0,33.0,-100.00,ESE,123,3.0,12.0,44,0.00,,,0.21,702.000000,,2013-03-07 22:01:00,
2013-03-07 14:11:00,54.0,33.0,-100.00,ESE,123,3.0,12.0,44,0.00,,,0.21,702.000000,,2013-03-07 22:11:00,
2013-03-07 14:22:00,54.0,33.0,-100.00,ESE,123,3.0,12.0,44,0.00,,,0.21,702.000000,,2013-03-07 22:22:00,
2013-03-07 15:02:00,55.0,31.0,-100.00,SW,222,5.0,11.0,39,0.00,,,0.20,587.000000,,2013-03-07 23:02:00,
2013-03-07 15:12:00,55.0,31.0,-100.00,SW,222,5.0,11.0,39,0.00,,,0.20,587.000000,,2013-03-07 23:12:00,
2013-03-07 15:21:00,55.0,31.0,-100.00,SW,222,5.0,11.0,39,0.00,,,0.20,587.000000,,2013-03-07 23:21:00,
2013-03-07 15:53:00,56.0,31.0,-100.00,WSW,249,5.0,12.0,39,0.00,,,0.20,528.000000,,2013-03-07 23:53:00,
2013-03-07 16:12:00,56.0,31.0,-100.00,WSW,249,5.0,12.0,39,0.00,,,0.20,528.000000,,2013-03-08 00:12:00,
2013-03-07 16:22:00,56.0,31.0,-100.00,WSW,249,5.0,12.0,39,0.00,,,0.20,528.000000,,2013-03-08 00:22:00,
2013-03-07 16:53:00,55.0,30.0,-100.00,South,176,4.0,9.0,38,0.00,,,0.19,333.000000,,2013-03-08 00:53:00,
2013-03-07 17:01:00,55.0,30.0,-100.00,South,176,4.0,9.0,38,0.00,,,0.19,333.000000,,2013-03-08 01:01:00,
2013-03-07 17:11:00,55.0,30.0,-100.00,South,176,4.0,9.0,38,0.00,,,0.19,333.000000,,2013-03-08 01:11:00,
2013-03-07 17:21:00,55.0,30.0,-100.00,South,176,4.0,9.0,38,0.00,,,0.19,333.000000,,2013-03-08 01:21:00,
2013-03-07 17:52:00,52.0,30.0,-100.00,WSW,241,3.0,7.0,43,0.00,,,0.19,121.000000,,2013-03-08 01:52:00,
2013-03-07 18:01:00,52.0,30.0,-100.00,WSW,241,3.0,7.0,43,0.00,,,0.19,121.000000,,2013-03-08 02:01:00,
2013-03-07 18:11:00,52.0,30.0,-100.00,WSW,241,3.0,7.0,43,0.00,,,0.19,121.000000,,2013-03-08 02:11:00,
2013-03-07 18:21:00,52.0,30.0,-100.00,WSW,241,3.0,7.0,43,0.00,,,0.19,121.000000,,2013-03-08 02:21:00,
2013-03-07 18:53:00,44.0,31.0,-100.00,West,273,3.0,4.0,59,0.00,,,0.18,6.000000,,2013-03-08 02:53:00,
2013-03-07 19:02:00,44.0,31.0,-100.00,West,273,3.0,4.0,59,0.00,,,0.18,6.000000,,2013-03-08 03:02:00,
2013-03-07 19:11:00,44.0,31.0,-100.00,West,273,3.0,4.0,59,0.00,,,0.18,6.000000,,2013-03-08 03:11:00,
2013-03-07 19:22:00,44.0,31.0,-100.00,West,273,3.0,4.0,59,0.00,,,0.18,6.000000,,2013-03-08 03:22:00,
2013-03-07 19:52:00,39.0,30.0,-100.00,NE,36,5.0,10.0,70,0.00,,,0.09,0.000000,,2013-03-08 03:52:00,
2013-03-07 20:01:00,39.0,30.0,-100.00,NE,36,5.0,10.0,70,0.00,,,0.09,0.000000,,2013-03-08 04:01:00,
2013-03-07 20:11:00,39.0,30.0,-100.00,NE,36,5.0,10.0,70,0.00,,,0.09,0.000000,,2013-03-08 04:11:00,
2013-03-07 20:21:00,39.0,30.0,-100.00,NE,36,5.0,10.0,70,0.00,,,0.09,0.000000,,2013-03-08 04:21:00,
2013-03-07 20:52:00,39.0,34.0,-100.00,NNE,14,8.0,10.0,81,0.00,,,0.03,0.000000,,2013-03-08 04:52:00,
2013-03-07 21:01:00,39.0,34.0,-100.00,NNE,14,8.0,10.0,81,0.00,,,0.03,0.000000,,2013-03-08 05:01:00,
2013-03-07 21:12:00,39.0,34.0,-100.00,NNE,14,8.0,10.0,81,0.00,,,0.03,0.000000,,2013-03-08 05:12:00,
2013-03-07 21:22:00,39.0,34.0,-100.00,NNE,14,8.0,10.0,81,0.00,,,0.03,0.000000,,2013-03-08 05:22:00,
2013-03-07 21:52:00,38.0,33.0,-100.00,NNE,19,7.0,10.0,82,0.00,,,0.01,0.000000,,2013-03-08 05:52:00,
2013-03-07 22:01:00,38.0,33.0,-100.00,NNE,19,7.0,10.0,82,0.00,,,0.01,0.000000,,2013-03-08 06:01:00,
2013-03-07 22:11:00,38.0,33.0,-100.00,NNE,19,7.0,10.0,82,0.00,,,0.01,0.000000,,2013-03-08 06:11:00,
2013-03-07 22:21:00,38.0,33.0,-100.00,NNE,19,7.0,10.0,82,0.00,,,0.01,0.000000,,2013-03-08 06:21:00,
2013-03-07 22:52:00,35.0,30.0,-100.00,NW,326,5.0,10.0,83,0.00,,,0.00,0.000000,,2013-03-08 06:52:00,
2013-03-07 23:01:00,35.0,30.0,-100.00,NW,326,5.0,10.0,83,0.00,,,0.00,0.000000,,2013-03-08 07:01:00,
2013-03-07 23:11:00,35.0,30.0,-100.00,NW,326,5.0,10.0,83,0.00,,,0.00,0.000000,,2013-03-08 07:11:00,
2013-03-07 23:21:00,35.0,30.0,-100.00,NW,326,5.0,10.0,83,0.00,,,0.00,0.000000,,2013-03-08 07:21:00,
2013-03-07 23:52:00,34.0,31.0,-100.00,WNW,299,6.0,10.0,87,0.00,,,0.00,0.000000,,2013-03-08 07:52:00,